Regional Weather Roundup
Issued by NWS

Home | Current Version | Previous Version | Graphics & Text | Print | Product List | Glossary On
Versions: 1 2 3 4 5 6 7 8 9 10 11 12 13 14 15 16 17 18 19 20 21 22 23 24 25 26 27 28 29 30 31 32 33 34 35 36 37 38 39 40 41 42 43 44 45 46 47 48 49 50
000
ASUS43 KOAX 251302
RWRNE

WEATHER ROUNDUP FOR NEBRASKA
NATIONAL WEATHER SERVICE OMAHA NE
800 AM CDT WED MAY 25 2016

NOTES: SATELLITE DATA IS BEING USED TO AUGMENT CLOUD COVER ABOVE
       12000 FEET.
       "FAIR" INDICATES FEW OR NO CLOUDS BELOW 12,000 FEET WITH NO
       SIGNIFICANT WEATHER AND/OR OBSTRUCTIONS TO VISIBILITY.

  * THESE STATIONS DO NOT REPORT WEATHER SUCH AS RAIN...SNOW OR FOG.

NEZ001>004-019>022-054>056-251400-
NEBRASKA PANHANDLE

CITY           SKY/WX    TMP DP  RH WIND       PRES   REMARKS
SCOTTSBLUFF    MOSUNNY   52  47  83 CALM      29.93S
ALLIANCE       CLOUDY    50  49  96 W14       29.92R
CHADRON        MOSUNNY   49  32  52 SW6       29.89S
SIDNEY         FOG       48  48 100 W8        29.96R VSB<1/4
$$

NEZ057>060-069>072-079>082-251400-
SOUTHWEST NEBRASKA

CITY           SKY/WX    TMP DP  RH WIND       PRES   REMARKS
NORTH PLATTE   MOSUNNY   58  55  90 E5        29.88F
IMPERIAL       SUNNY     58  52  80 SE5       29.91R
LEXINGTON      CLOUDY    61  56  81 SE13      29.87S
MCCOOK         MOSUNNY   62  55  77 SE14G20   29.86F
$$

NEZ005>010-023>029-035>040-094-251400-
NORTH CENTRAL NEBRASKA

CITY           SKY/WX    TMP DP  RH WIND       PRES   REMARKS
VALENTINE      MOSUNNY   58  53  84 SW7       29.82F
AINSWORTH      CLOUDY    58  56  96 SW8       29.85S
BROKEN BOW     SUNNY     60  55  83 SW8       29.88R
ORD            MOSUNNY   62  57  83 S8        29.82S
$$

NEZ041-046>049-061>064-073>077-083>087-251400-
SOUTH CENTRAL NEBRASKA

CITY           SKY/WX    TMP DP  RH WIND       PRES   REMARKS
GRAND ISLAND   CLOUDY    60  59  96 S12       29.88S
HASTINGS       CLOUDY    59  59 100 SE6       29.90F
KEARNEY *      CLOUDY    61  57  88 SE9       29.90F
YORK           CLOUDY    61  59  94 W5        29.91F
$$

NEZ011>018-030>034-042>045-251400-
NORTHEAST NEBRASKA

CITY           SKY/WX    TMP DP  RH WIND       PRES   REMARKS
NORFOLK        LGT RAIN  61  57  87 SE9       29.80F
ALBION         CLOUDY    61  58  92 SE9       29.82F
BLAIR          LGT RAIN  65  60  85 CALM      29.90R
FREMONT        LGT RAIN  64  59  83 SW6       29.91R
TEKAMAH        CLOUDY    64  60  87 SW6       29.87R
$$

NEZ050>053-065>068-078-088>093-251400-
SOUTHEAST NEBRASKA

CITY           SKY/WX    TMP DP  RH WIND       PRES   REMARKS
LINCOLN        PTSUNNY   64  59  83 W7        29.90R
OMAHA EPPLEY   CLOUDY    66  61  84 NE3       29.89R
FALLS CITY     RAIN      65  60  84 W10       29.91R
$$

NEZ044-045-051>053-067-251400-
OMAHA AREA

CITY           SKY/WX    TMP DP  RH WIND       PRES   REMARKS
OMAHA EPPLEY   CLOUDY    66  61  84 NE3       29.89R
BLAIR          LGT RAIN  65  60  85 CALM      29.90R
FREMONT        LGT RAIN  64  59  83 SW6       29.91R
$$




USA.gov is the U.S. government's official web portal to all federal, state and local government web resources and services.